Location: Navajo
(48.7922°N, 105.0603°W)
Time: 19:33:20
(UTC+00:00)

BlueWalker 3 - Visible Passes

Search period start: 27 November 2022 00:00
Search period end: 07 December 2022 00:00
Orbit: 500 x 519 km, 53.2° (Epoch: 27 November)

Date Brightness Start Highest point End Pass type
(mag) Time Alt. Az. Time Alt. Az. Time Alt. Az.
27 Nov 2.5 00:05:25 10° SW 00:09:11 48° SE 00:12:17 14° ENE visible
27 Nov 2.9 01:44:02 10° W 01:47:07 45° WNW 01:47:07 45° WNW visible
27 Nov 2.4 23:47:02 10° SW 23:50:50 51° SE 23:54:38 10° ENE visible
28 Nov 2.4 01:25:43 10° W 01:29:32 53° NNW 01:29:32 53° NNW visible
29 Nov 2.4 01:07:23 10° W 01:11:13 52° NNW 01:11:54 45° NNE visible
29 Nov 5.3 02:46:35 10° WNW 02:46:44 11° WNW 02:46:44 11° WNW visible
30 Nov 2.4 00:49:03 10° W 00:52:53 51° NNW 00:54:16 33° NE visible
30 Nov 4.8 02:28:15 10° WNW 02:29:05 15° WNW 02:29:05 15° WNW visible
01 Dec 2.4 00:30:43 10° W 00:34:32 50° NNW 00:36:36 24° NE visible
01 Dec 4.3 02:09:54 10° WNW 02:11:26 21° NW 02:11:26 21° NW visible
02 Dec 2.5 00:12:21 10° W 00:16:11 49° NNW 00:18:57 17° ENE visible
02 Dec 3.6 01:51:32 10° WNW 01:53:46 29° NW 01:53:46 29° NW visible
02 Dec 2.5 23:54:00 10° W 23:57:49 48° N 00:01:18 12° ENE visible
03 Dec 2.9 01:33:10 10° WNW 01:36:07 39° NNW 01:36:07 39° NNW visible
03 Dec 2.5 23:35:38 10° W 23:39:28 47° N 23:43:15 10° ENE visible
04 Dec 2.4 01:14:48 10° WNW 01:18:30 47° N 01:18:30 47° N visible
05 Dec 2.3 00:56:25 10° WNW 01:00:14 49° NNE 01:00:54 43° NE visible
05 Dec 5.0 02:35:10 10° WNW 02:35:44 14° WNW 02:35:44 14° WNW visible
06 Dec 2.3 00:38:01 10° WNW 00:41:51 49° NNE 00:43:22 31° ENE visible
06 Dec 4.4 02:16:47 10° WNW 02:18:12 21° WNW 02:18:12 21° WNW visible
